Location: Oshawa
(43.9000°N, 78.8670°W)
Time: 22:51:27
(UTC-04:00)

Iridium 54 - Visible Passes

Search period start: 25 June 2016 00:00
Search period end: 05 July 2016 00:00
Orbit: 776 x 779 km, 86.4° (Epoch: 25 June)

Date Brightness Start Highest point End Pass type
(mag) Time Alt. Az. Time Alt. Az. Time Alt. Az.
25 Jun 6.3 03:32:36 10° N 03:37:43 52° E 03:42:47 10° SSE visible
26 Jun 7.2 02:59:28 10° NNE 03:04:00 29° ENE 03:08:31 10° SE visible
26 Jun 6.3 04:40:03 10° NNW 04:44:44 34° W 04:49:24 10° SSW visible
27 Jun 7.9 02:26:49 10° NNE 02:30:10 17° ENE 02:33:29 10° ESE visible
27 Jun 5.6 04:06:11 10° N 04:11:21 62° W 04:16:13 11° SSW visible
28 Jun 5.7 03:32:37 10° N 03:37:51 74° E 03:42:25 14° S visible
29 Jun 6.6 02:59:17 10° N 03:04:13 41° E 03:08:38 13° SSE visible
29 Jun 6.8 04:40:31 10° NNW 04:44:41 25° W 04:48:50 10° SW visible
30 Jun 7.4 02:26:18 10° NNE 02:30:28 24° ENE 02:34:36 10° SE visible
30 Jun 6.0 04:06:27 10° NNW 04:11:22 43° W 04:15:18 15° SSW visible
01 Jul 8.0 01:54:03 10° NE 01:56:34 13° ENE 01:59:05 10° E visible
01 Jul 5.5 03:32:43 10° N 03:37:57 78° W 03:41:33 21° S visible
02 Jul 6.0 02:59:14 10° N 03:04:24 59° E 03:07:49 21° SSE visible
02 Jul 7.2 04:41:13 10° NW 04:44:35 18° WNW 04:47:57 10° WSW visible
03 Jul 6.9 02:26:01 10° NNE 02:30:43 33° E 02:34:05 17° SE visible
03 Jul 6.5 04:06:49 10° NNW 04:11:21 31° W 04:14:32 17° SW visible
04 Jul 7.7 01:53:13 10° NNE 01:56:55 19° ENE 02:00:23 11° ESE visible
04 Jul 5.7 03:32:54 10° NNW 03:38:00 55° W 03:40:50 25° SSW visible
